Regional Weather Roundup
Issued by NWS

Home | Current Version | Previous Version | Graphics & Text | Print | Product List | Glossary On
Versions: 1 2 3 4 5 6 7 8 9 10 11 12 13 14 15 16 17 18 19 20 21 22 23 24 25 26 27 28 29 30 31 32 33 34 35 36 37 38 39 40 41 42 43 44 45 46 47 48 49 50
000
ASUS43 KMPX 010010
RWRMN
WEATHER ROUNDUP FOR MINNESOTA
NATIONAL WEATHER SERVICE TWIN CITIES/CHANHASSEN MN
700 PM CDT TUE MAY 31 2016


NOTE: "FAIR" INDICATES FEW OR NO CLOUDS BELOW 12,000 FEET WITH NO
SIGNIFICANT WEATHER AND/OR OBSTRUCTIONS TO VISIBILITY. N/A MEANS
CURRENT SKY AND/OR WEATHER CONDITIONS ARE NOT AVAILABLE.

MNZ060>063-068>070-010100-
   Twin Cities Metro

CITY           SKY/WX    TMP DP  RH WIND       PRES   REMARKS
TWIN CITIES    CLOUDY    72  56  57 VRB6      29.83S
6HR MIN TEMP:  69; 6HR MAX TEMP:  72; 6HR PCP: TRACE;

ST PAUL        CLOUDY    71  62  73 SE6       29.83S
CRYSTAL        CLOUDY    73  54  51 S10       29.81S
EDEN PRAIRIE   CLOUDY    74  56  53 SW5       29.81S
6HR MIN TEMP:  68; 6HR MAX TEMP:  74; 6HR PCP: TRACE;

SOUTH ST PAUL  CLOUDY    71  61  70 S5        29.84R
LAKE ELMO      FAIR      68  63  83 S6        29.85R
$$
MNZ001>005-007-008-013>017-022>024-027-028-010100-
   Northwest Minnesota

CITY           SKY/WX    TMP DP  RH WIND       PRES   REMARKS
BEMIDJI        PTSUNNY   68  48  49 S6        29.75S
HALLOCK        SUNNY     66  52  59 SE15      29.66S
ROSEAU         PTSUNNY   61  55  82 SE10      29.73R
WARROAD        CLOUDY    57  54  88 E9G16     29.75S
THIEF RVR FALL CLOUDY    64  48  55 S8        29.71S
CROOKSTON      MOSUNNY   66  50  55 SW15      29.68F
FOSSTON        CLOUDY    63  46  55 S10G16    29.72F
DETROIT LAKES  MOSUNNY   68  45  42 S17       29.73F
MOORHEAD       MOSUNNY   68  45  42 S15G22    29.68F
PARK RAPIDS    MOSUNNY   69  45  41 S16       29.76F
MAHNOMEN       CLOUDY    65  48  54 S17G23    29.70F
$$
MNZ006-009>011-018-025>026-010100-
   North Central Minnesota

CITY           SKY/WX    TMP DP  RH WIND       PRES   REMARKS
BAUDETTE       CLOUDY    55  53  93 SE8       29.77S
FLAG ISLAND    CLOUDY    54  52  94 E9G16     29.77R
INTL FALLS     CLOUDY    53  52  96 SE10      29.81S FOG
6HR MIN TEMP:  50; 6HR MAX TEMP:  53; 6HR PCP:  0.13;

WASKISH        MOSUNNY   63  57  82 E10G16    29.75S
BIG FORK       CLOUDY    57  54  88 SE8       29.80S
LONGVILLE      PTSUNNY   66  48  52 S5        29.78R
GRAND RAPIDS   CLOUDY    56  54  93 E8        29.82S
CRANE LAKE     CLOUDY    52  50  93 CALM      29.88R
ORR            CLOUDY    54  52  94 SE5       29.82R
COOK           CLOUDY    55  52  88 SE3       29.84F
WALKER         MOCLDY    67  48  51 S12G17    29.76S
$$
MNZ012-019>021-037-010100-
   Northeast Minnesota

CITY           SKY/WX    TMP DP  RH WIND       PRES   REMARKS
DULUTH         CLOUDY    46  44  93 E13       29.88S
6HR MIN TEMP:  45; 6HR MAX TEMP:  49; 6HR PCP:  0.19;

ELY            CLOUDY    52  48  87 E5        29.88S
HIBBING        CLOUDY    53  51  93 SE9       29.84S
EVELETH        CLOUDY    52  50  93 E7        29.86F
DULUTH HARBOR  CLOUDY    45  43  93 NE25G31   29.92S
TWO HARBORS    CLOUDY    48  43  81 NE10G20   29.89S
SILVER BAY     LGT RAIN  45  43  93 N7G18     29.91S
GRAND MARAIS     N/A     50  43  77 NE15      29.94R
G MARAIS ARPRT LGT RAIN  45  39  81 NE9       29.95S
$$
MNZ029>031-032-039>041-046>048-054>057-064-010100-
   West Central Minnesota

CITY           SKY/WX    TMP DP  RH WIND       PRES   REMARKS
FERGUS FALLS   CLOUDY    66  46  48 SW16      29.70F
WHEATON        PTSUNNY   72  50  46 SW22G29   29.75S
MORRIS         CLOUDY    68  46  45 S12       29.76F
ALEXANDRIA     PTSUNNY   67  46  47 SW10      29.79F
ELBOW LAKE     CLOUDY    67  48  50 SW15      29.75F
WADENA         SUNNY     66  48  52 SW9       29.76F
GLENWOOD       PTSUNNY   66  48  52 S10       29.80F
APPLETON       CLOUDY    72  45  37 SW12G17   29.77F
BENSON         CLOUDY    70  45  40 SW8       29.78F
ORTONVILLE     CLOUDY    70  45  40 SW12      29.76F
MADISON        CLOUDY    72  46  40 SW13G18   29.78F
WILLMAR        FAIR      73  46  38 S6        29.82S
$$
MNZ033>034-036-042>043-049>051-058-059-010100-
   Central Minnesota

CITY           SKY/WX    TMP DP  RH WIND       PRES   REMARKS
ST CLOUD       SUNNY     72  48  42 SW13      29.81S
6HR MIN TEMP:  66; 6HR MAX TEMP:  74;

SAUK CENTRE    FAIR      69  49  48 S12       29.80F
PAYNESVILLE    SUNNY     71  45  39 SW9       29.82S
AITKIN         CLOUDY    73  48  40 SW9       29.78R
PINE RIVER     PTSUNNY   68  52  56 S10       29.81S
BRAINERD       CLOUDY    69  49  48 S15       29.79S
STAPLES        SUNNY     68  45  42 S9        29.78F
LONG PRAIRIE   FAIR      68  46  45 S12       29.80F
LITTLE FALLS   SUNNY     70  45  40 SW9       29.80F
LITCHFIELD     SUNNY     72  48  43 W5        29.83S
BUFFALO        SUNNY     73  48  42 SW8       29.83R
MAPLE LAKE     SUNNY     73  53  49 SW5       29.83S
HUTCHINSON     SUNNY     73  51  46 SW8       29.84S
$$
MNZ037-044-045-052-053-010100-
   East Central Minnesota

CITY           SKY/WX    TMP DP  RH WIND       PRES   REMARKS
PRINCETON      CLOUDY    73  54  49 SW7       29.81S
MORA           CLOUDY    70  55  60 S7        29.82S
CAMBRIDGE      CLOUDY    75  57  53 S8        29.80R
RUSH CITY      CLOUDY    70  58  65 S5        29.83R
MOOSE LAKE     CLOUDY    45  43  93 NE7G16    29.85R FOG
HINCKLEY       FAIR      59  55  88 NE6       29.83R
CLOQUET        CLOUDY    45  43  93 E13G18    29.87F
MCGREGOR       CLOUDY    55  52  88 E12       29.83R
$$
MNZ071>073-080-081-089-090-097-098-010100-
   Southwest Minnesota

CITY           SKY/WX    TMP DP  RH WIND       PRES   REMARKS
MONTEVIDEO     CLOUDY    72  45  37 W9        29.81F
GRANITE FALLS  PTSUNNY   72  49  44 SW14G20   29.83S
CANBY          CLOUDY    73  49  42 SW12      29.81F
MARSHALL       MOSUNNY   72  46  39 W16G22    29.83S
REDWOOD FALLS  SUNNY     73  46  38 SW9       29.82F
OLIVIA         SUNNY     70  45  40 W9        29.82S
PIPESTONE      MOSUNNY   70  46  43 W12G17    29.86S
WINDOM         SUNNY     72  46  40 CALM      29.87S
WORTHINGTON    MOSUNNY   71  47  42 W14       29.88S
JACKSON        SUNNY     72  43  35 W10G17    29.88S
TRACY          SUNNY     72  49  44 W12       29.84F
SLAYTON        SUNNY     71  45  38 SW16      29.87S
$$
MNZ065>067-074>077-082>085-091>093-010100-
   South Central Minnesota

CITY           SKY/WX    TMP DP  RH WIND       PRES   REMARKS
MANKATO        PTSUNNY   73  52  46 W13       29.84S
NEW ULM        SUNNY     72  48  43 W10       29.85R
ST JAMES       SUNNY    N/A N/A N/A SW12      29.87R
FAIRMONT       MOSUNNY   72  50  46 W7        29.87R
GLENCOE        MOSUNNY   74  51  44 W9        29.82S
FARIBAULT      CLOUDY    70  61  73 W6        29.85S
OWATONNA       CLOUDY    70  61  73 SW5       29.86R
WASECA         CLOUDY    70  61  73 S8        29.87R
ALBERT LEA     CLOUDY    70  57  64 CALM      29.87S
$$
MNZ078>079-086>088-094>096-010100-
   Southeast Minnesota

CITY           SKY/WX    TMP DP  RH WIND       PRES   REMARKS
ROCHESTER      CLOUDY    67  62  84 W3        29.88R
6HR MIN TEMP:  63; 6HR MAX TEMP:  79; 6HR PCP:  0.55;

RED WING       CLOUDY    68  63  83 CALM      29.85R
STANTON        PTSUNNY   69  61  75 S5        29.83S
DODGE CENTER   CLOUDY    64  64 100 W8        29.88R
WINONA         CLOUDY    66  63  88 SE5       29.88S
AUSTIN         CLOUDY    66  61  82 W6        29.87R
PRESTON        CLOUDY    65  62  91 SE3         N/A
$$
ABBREVIATIONS USED IN REMARKS
   TC - TEMPERATURES IN CELSIUS
  WCI - WIND CHILL INDEX
   HX - HEAT INDEX
  VSB - VISIBILITY
$$




USA.gov is the U.S. government's official web portal to all federal, state and local government web resources and services.